| time (UTC) | temp F | wind direction | speed MPH | gust MPH | rain 1hr in | rain 24hr in | rain mn in | humidity % | barometer mb |
| 20260906152017 | 87 | 238 | 0.0 | 4.0 | 0.00 | 0.34 | 0.34 | 82 | 1015.0 |
| 20260906151017 | 88 | 272 | 0.0 | 3.0 | 0.00 | 0.34 | 0.34 | 72 | 1014.9 |
| 20260906150018 | 90 | 0.0 | 0.0 | 0.00 | 0.34 | 0.34 | 78 | 1014.8 | |
| 20260906145017 | 89 | 0.0 | 1.0 | 0.00 | 0.34 | 0.34 | 79 | 1014.8 | |
| 20260906144017 | 88 | 53 | 0.0 | 1.0 | 0.00 | 0.34 | 0.34 | 83 | 1014.7 |
| 20260906143018 | 86 | 76 | 0.0 | 4.0 | 0.00 | 0.34 | 0.34 | 86 | 1014.7 |
| 20260906142017 | 86 | 71 | 0.0 | 3.0 | 0.00 | 0.34 | 0.34 | 88 | 1014.7 |
| 20260906141018 | 84 | 62 | 0.0 | 3.0 | 0.00 | 0.34 | 0.34 | 93 | 1015.0 |
| 20260906140015 | 83 | 0.0 | 0.0 | 0.00 | 0.34 | 0.34 | 97 | 1015.0 | |
| 20260906135018 | 81 | 0.0 | 0.0 | 0.00 | 0.34 | 0.34 | 99 | 1015.1 | |
| 20260906134017 | 79 | 0.0 | 0.0 | 0.00 | 0.34 | 0.34 | 98 | 1015.1 | |
| 20260906133018 | 79 | 0.0 | 0.0 | 0.01 | 0.34 | 0.34 | 98 | 1015.0 | |
| 20260906132017 | 78 | 0.0 | 0.0 | 0.01 | 0.34 | 0.34 | 98 | 1015.1 | |
| 20260906131016 | 78 | 0.0 | 0.0 | 0.01 | 0.34 | 0.34 | 98 | 1014.8 | |
| 20260906130018 | 78 | 0.0 | 0.0 | 0.03 | 0.34 | 0.34 | 98 | 1014.6 | |
| 20260906125017 | 78 | 0.0 | 1.0 | 0.10 | 0.34 | 0.34 | 98 | 1014.7 | |
| 20260906124016 | 77 | 0.0 | 0.0 | 0.27 | 0.34 | 0.34 | 98 | 1014.6 | |
| 20260906123017 | 77 | 0.0 | 0.0 | 0.27 | 0.33 | 0.33 | 98 | 1014.6 | |
| 20260906122057 | 77 | 0.0 | 0.0 | 0.27 | 0.33 | 0.33 | 98 | 1014.7 | |
| 20260906121518 | 77 | 285 | 0.0 | 7.0 | 0.27 | 0.33 | 0.33 | 98 | 1014.7 |
| 20260906120516 | 77 | 280 | 0.0 | 1.0 | 0.26 | 0.32 | 0.32 | 97 | 1014.7 |
| 20260906115517 | 77 | 279 | 0.0 | 9.0 | 0.23 | 0.29 | 0.29 | 97 | 1014.5 |
| 20260906114516 | 78 | 274 | 2.0 | 9.0 | 0.07 | 0.13 | 0.13 | 97 | 1014.4 |
| 20260906113517 | 78 | 278 | 1.0 | 6.0 | 0.00 | 0.06 | 0.06 | 98 | 1014.3 |
| 20260906112516 | 78 | 0.0 | 0.0 | 0.00 | 0.06 | 0.06 | 98 | 1013.9 | |
| 20260906111517 | 78 | 0.0 | 0.0 | 0.00 | 0.06 | 0.06 | 98 | 1013.8 | |
| 20260906110517 | 78 | 0.0 | 1.0 | 0.00 | 0.06 | 0.06 | 98 | 1013.7 | |
| 20260906105517 | 78 | 0.0 | 0.0 | 0.01 | 0.06 | 0.06 | 98 | 1013.6 | |
| 20260906104557 | 78 | 0.0 | 0.0 | 0.05 | 0.06 | 0.06 | 98 | 1013.6 | |
| 20260906103555 | 78 | 0.0 | 0.0 | 0.06 | 0.06 | 0.06 | 97 | 1013.6 | |
| 20260906102517 | 78 | 0.0 | 0.0 | 0.06 | 0.06 | 0.06 | 97 | 1013.4 | |
| 20260906101557 | 78 | 0.0 | 0.0 | 0.06 | 0.06 | 0.06 | 97 | 1013.4 | |
| 20260906100516 | 78 | 0.0 | 0.0 | 0.06 | 0.06 | 0.06 | 97 | 1013.5 | |
| 20260906095517 | 78 | 0.0 | 2.0 | 0.05 | 0.05 | 0.05 | 97 | 1013.4 | |
| 20260906094517 | 78 | 276 | 0.0 | 1.0 | 0.01 | 0.01 | 0.01 | 98 | 1013.5 |
| 20260906093517 | 78 | 0.0 | 0.0 | 0.00 | 0.00 | 0.00 | 97 | 1013.4 | |
| 20260906092537 | 78 | 0.0 | 0.0 | 0.00 | 0.00 | 0.00 | 97 | 1013.3 | |
| 20260906091517 | 78 | 0.0 | 0.0 | 0.00 | 0.00 | 0.00 | 97 | 1013.2 | |
| 20260906090519 | 78 | 0.0 | 0.0 | 0.00 | 0.00 | 0.00 | 97 | 1013.0 | |
| 20260906085539 | 78 | 0.0 | 0.0 | 0.00 | 0.00 | 0.00 | 97 | 1012.9 | |
| 20260906084517 | 78 | 0.0 | 0.0 | 0.00 | 0.00 | 0.00 | 97 | 1012.9 | |
| 20260906083517 | 78 | 0.0 | 0.0 | 0.00 | 0.00 | 0.00 | 97 | 1013.0 | |
| 20260906082537 | 78 | 0.0 | 0.0 | 0.00 | 0.00 | 0.00 | 97 | 1013.0 | |
| 20260906081559 | 78 | 0.0 | 0.0 | 0.00 | 0.00 | 0.00 | 97 | 1012.9 | |
| 20260906080557 | 78 | 0.0 | 0.0 | 0.00 | 0.00 | 0.00 | 97 | 1012.9 | |
| 20260906075517 | 78 | 0.0 | 0.0 | 0.00 | 0.00 | 0.00 | 97 | 1012.9 | |
| 20260906074537 | 78 | 0.0 | 0.0 | 0.00 | 0.00 | 0.00 | 97 | 1013.0 | |
| 20260906073517 | 78 | 0.0 | 0.0 | 0.00 | 0.00 | 0.00 | 97 | 1012.9 | |
| 20260906072516 | 77 | 0.0 | 0.0 | 0.00 | 0.00 | 0.00 | 96 | 1012.8 | |
| 20260906071517 | 77 | 0.0 | 0.0 | 0.00 | 0.00 | 0.00 | 96 | 1012.9 | |
| 20260906070517 | 77 | 0.0 | 0.0 | 0.00 | 0.00 | 0.00 | 96 | 1013.0 | |
| 20260906065517 | 77 | 0.0 | 0.0 | 0.00 | 0.00 | 0.00 | 96 | 1012.9 | |
| 20260906064537 | 77 | 0.0 | 0.0 | 0.00 | 0.00 | 0.00 | 96 | 1013.0 | |
| 20260906063517 | 77 | 0.0 | 0.0 | 0.00 | 0.00 | 0.00 | 95 | 1012.9 | |
| 20260906062517 | 78 | 0.0 | 0.0 | 0.00 | 0.00 | 0.00 | 95 | 1013.0 | |
| 20260906061517 | 78 | 0.0 | 0.0 | 0.00 | 0.00 | 0.00 | 95 | 1013.2 | |
| 20260906060517 | 78 | 0.0 | 0.0 | 0.00 | 0.00 | 0.00 | 95 | 1013.2 | |
| 20260906055517 | 78 | 0.0 | 0.0 | 0.00 | 0.00 | 0.00 | 95 | 1013.4 | |
| 20260906054517 | 78 | 0.0 | 0.0 | 0.00 | 0.00 | 0.00 | 95 | 1013.6 | |
| 20260906053537 | 78 | 0.0 | 0.0 | 0.00 | 0.00 | 0.00 | 94 | 1013.6 | |
| 20260906052537 | 78 | 0.0 | 0.0 | 0.00 | 0.00 | 0.00 | 94 | 1013.7 | |
| 20260906051517 | 78 | 0.0 | 0.0 | 0.00 | 0.00 | 0.00 | 94 | 1013.7 | |
| 20260906050517 | 79 | 0.0 | 0.0 | 0.00 | 0.00 | 0.00 | 93 | 1013.7 | |
| 20260906045517 | 79 | 0.0 | 0.0 | 0.00 | 0.00 | 0.00 | 93 | 1013.7 | |
| 20260906044518 | 79 | 0.0 | 0.0 | 0.00 | 0.00 | 0.00 | 92 | 1013.8 | |
| 20260906043517 | 79 | 0.0 | 0.0 | 0.00 | 0.00 | 0.00 | 92 | 1014.0 | |
| 20260906042516 | 79 | 0.0 | 0.0 | 0.00 | 0.00 | 0.00 | 92 | 1014.0 | |
| 20260906041516 | 80 | 0.0 | 0.0 | 0.00 | 0.00 | 0.00 | 91 | 1014.0 | |
| 20260906040517 | 80 | 0.0 | 0.0 | 0.00 | 0.00 | 0.00 | 91 | 1014.0 | |
| 20260906035539 | 80 | 0.0 | 0.0 | 0.00 | 0.00 | 0.00 | 91 | 1014.2 | |
| 20260906034517 | 81 | 0.0 | 0.0 | 0.00 | 0.00 | 0.00 | 90 | 1014.1 | |
| 20260906033517 | 81 | 0.0 | 0.0 | 0.00 | 0.00 | 0.00 | 89 | 1014.2 | |
| 20260906032518 | 81 | 0.0 | 0.0 | 0.00 | 0.00 | 0.00 | 88 | 1014.2 | |
| 20260906031517 | 82 | 0.0 | 0.0 | 0.00 | 0.00 | 0.00 | 87 | 1014.1 | |
| 20260906030517 | 82 | 0.0 | 0.0 | 0.00 | 0.00 | 0.00 | 86 | 1014.0 | |
| 20260906025517 | 83 | 0.0 | 0.0 | 0.00 | 0.00 | 0.00 | 85 | 1013.9 | |
| 20260906024517 | 83 | 0.0 | 0.0 | 0.00 | 0.00 | 0.00 | 84 | 1013.9 | |
| 20260906023517 | 84 | 0.0 | 0.0 | 0.00 | 0.00 | 0.00 | 83 | 1013.8 | |
| 20260906022517 | 84 | 280 | 0.0 | 1.0 | 0.00 | 0.00 | 0.00 | 83 | 1013.4 |
| 20260906021517 | 84 | 283 | 0.0 | 2.0 | 0.00 | 0.00 | 0.00 | 83 | 1013.3 |
| 20260906020516 | 84 | 280 | 1.0 | 4.0 | 0.00 | 0.00 | 0.00 | 82 | 1013.5 |
| 20260906015517 | 84 | 276 | 1.0 | 4.0 | 0.00 | 0.00 | 0.00 | 82 | 1013.5 |
| 20260906014517 | 84 | 281 | 1.0 | 3.0 | 0.00 | 0.00 | 0.00 | 81 | 1013.5 |
| 20260906013518 | 84 | 276 | 0.0 | 5.0 | 0.00 | 0.00 | 0.00 | 81 | 1013.3 |
| 20260906012517 | 85 | 286 | 1.0 | 4.0 | 0.00 | 0.00 | 0.00 | 81 | 1013.1 |
| 20260906011516 | 85 | 280 | 0.0 | 3.0 | 0.00 | 0.00 | 0.00 | 81 | 1013.2 |
| 20260906010516 | 85 | 275 | 1.0 | 5.0 | 0.00 | 0.00 | 0.00 | 81 | 1013.2 |
| 20260906005516 | 85 | 279 | 1.0 | 7.0 | 0.00 | 0.00 | 0.00 | 81 | 1013.2 |
| 20260906004516 | 85 | 282 | 1.0 | 5.0 | 0.00 | 0.00 | 0.00 | 80 | 1013.3 |
| 20260906003516 | 85 | 282 | 1.0 | 4.0 | 0.00 | 0.00 | 0.00 | 81 | 1013.2 |
| 20260906002517 | 85 | 280 | 1.0 | 3.0 | 0.00 | 0.00 | 0.00 | 81 | 1013.2 |
| 20260906001516 | 85 | 275 | 0.0 | 2.0 | 0.00 | 0.00 | 0.00 | 80 | 1013.2 |
| 20260906000516 | 85 | 288 | 0.0 | 5.0 | 0.00 | 0.00 | 0.00 | 80 | 1013.2 |
| 20260905235537 | 86 | 282 | 1.0 | 5.0 | 0.00 | 0.00 | 0.00 | 79 | 1013.2 |
| 20260905234517 | 86 | 284 | 0.0 | 5.0 | 0.00 | 0.00 | 0.00 | 78 | 1013.1 |
| 20260905233516 | 86 | 279 | 1.0 | 4.0 | 0.00 | 0.00 | 0.00 | 78 | 1013.0 |
| 20260905232516 | 86 | 281 | 1.0 | 5.0 | 0.00 | 0.00 | 0.00 | 77 | 1013.2 |
| 20260905231516 | 87 | 274 | 0.0 | 4.0 | 0.00 | 0.00 | 0.00 | 76 | 1013.0 |
| 20260905230556 | 87 | 285 | 1.0 | 4.0 | 0.00 | 0.00 | 0.00 | 76 | 1013.1 |
| 20260905225516 | 88 | 270 | 1.0 | 6.0 | 0.00 | 0.00 | 0.00 | 75 | 1013.2 |
| 20260905224516 | 88 | 285 | 1.0 | 5.0 | 0.00 | 0.00 | 0.00 | 74 | 1013.3 |
| 20260905223516 | 89 | 281 | 1.0 | 6.0 | 0.00 | 0.00 | 0.00 | 73 | 1013.3 |
| 20260905222516 | 90 | 276 | 1.0 | 5.0 | 0.00 | 0.00 | 0.00 | 73 | 1013.3 |
| 20260905221536 | 89 | 276 | 1.0 | 5.0 | 0.00 | 0.00 | 0.00 | 73 | 1013.4 |
| 20260905220516 | 90 | 273 | 1.0 | 7.0 | 0.00 | 0.00 | 0.00 | 73 | 1013.5 |
| 20260905215516 | 89 | 267 | 1.0 | 5.0 | 0.00 | 0.00 | 0.00 | 73 | 1013.4 |
| 20260905214516 | 89 | 274 | 1.0 | 7.0 | 0.00 | 0.00 | 0.00 | 74 | 1013.5 |
| 20260905213516 | 89 | 276 | 2.0 | 6.0 | 0.00 | 0.00 | 0.00 | 72 | 1013.7 |
| 20260905212516 | 90 | 267 | 1.0 | 6.0 | 0.00 | 0.00 | 0.00 | 74 | 1013.8 |
| 20260905211516 | 90 | 275 | 1.0 | 3.0 | 0.00 | 0.00 | 0.00 | 73 | 1013.8 |
| 20260905210536 | 90 | 277 | 2.0 | 7.0 | 0.00 | 0.00 | 0.00 | 73 | 1013.7 |
| 20260905205516 | 90 | 267 | 2.0 | 7.0 | 0.00 | 0.00 | 0.00 | 72 | 1013.6 |
| 20260905204516 | 91 | 270 | 2.0 | 7.0 | 0.00 | 0.00 | 0.00 | 71 | 1013.7 |
| 20260905203516 | 92 | 265 | 2.0 | 4.0 | 0.00 | 0.00 | 0.00 | 71 | 1013.7 |
| 20260905202536 | 91 | 273 | 2.0 | 6.0 | 0.00 | 0.00 | 0.00 | 72 | 1013.6 |
| 20260905201516 | 91 | 267 | 1.0 | 7.0 | 0.00 | 0.00 | 0.00 | 72 | 1013.7 |
| 20260905200516 | 91 | 271 | 2.0 | 7.0 | 0.00 | 0.00 | 0.00 | 71 | 1013.8 |
| 20260905195516 | 91 | 277 | 1.0 | 6.0 | 0.00 | 0.00 | 0.00 | 73 | 1014.0 |
| 20260905194516 | 90 | 280 | 2.0 | 6.0 | 0.00 | 0.00 | 0.00 | 72 | 1014.1 |
| 20260905193516 | 90 | 281 | 2.0 | 7.0 | 0.00 | 0.00 | 0.00 | 73 | 1014.4 |
| 20260905192536 | 90 | 278 | 2.0 | 7.0 | 0.00 | 0.00 | 0.00 | 72 | 1014.5 |
| 20260905191516 | 91 | 281 | 1.0 | 4.0 | 0.00 | 0.00 | 0.00 | 71 | 1014.8 |
| 20260905190536 | 92 | 265 | 1.0 | 4.0 | 0.00 | 0.00 | 0.00 | 69 | 1014.8 |
| 20260905185516 | 92 | 220 | 1.0 | 6.0 | 0.00 | 0.00 | 0.00 | 70 | 1014.9 |
| 20260905184517 | 91 | 270 | 0.0 | 5.0 | 0.00 | 0.00 | 0.00 | 72 | 1015.0 |
| 20260905183536 | 92 | 263 | 1.0 | 7.0 | 0.00 | 0.00 | 0.00 | 71 | 1015.2 |
| 20260905182516 | 92 | 286 | 1.0 | 7.0 | 0.00 | 0.00 | 0.00 | 71 | 1015.3 |
| 20260905181536 | 92 | 272 | 1.0 | 8.0 | 0.00 | 0.00 | 0.00 | 72 | 1015.3 |
| 20260905180516 | 92 | 272 | 1.0 | 6.0 | 0.00 | 0.00 | 0.00 | 72 | 1015.3 |
| 20260905175536 | 92 | 266 | 0.0 | 4.0 | 0.00 | 0.00 | 0.00 | 71 | 1015.5 |
| 20260905174516 | 92 | 273 | 1.0 | 4.0 | 0.00 | 0.00 | 0.00 | 71 | 1015.5 |
| 20260905173516 | 92 | 254 | 1.0 | 4.0 | 0.00 | 0.01 | 0.00 | 70 | 1015.5 |
| 20260905172516 | 92 | 281 | 0.0 | 2.0 | 0.00 | 0.01 | 0.00 | 73 | 1015.6 |
| 20260905172016 | 91 | 248 | 1.0 | 5.0 | 0.00 | 0.01 | 0.00 | 73 | 1015.6 |
| 20260905171016 | 91 | 270 | 1.0 | 6.0 | 0.00 | 0.01 | 0.00 | 74 | 1015.6 |
| 20260905170016 | 91 | 263 | 1.0 | 7.0 | 0.00 | 0.01 | 0.00 | 73 | 1015.8 |
| 20260905165015 | 91 | 265 | 1.0 | 4.0 | 0.00 | 0.01 | 0.00 | 74 | 1015.8 |
| 20260905164057 | 90 | 266 | 1.0 | 6.0 | 0.00 | 0.01 | 0.00 | 75 | 1015.7 |
| 20260905163017 | 90 | 257 | 1.0 | 4.0 | 0.00 | 0.01 | 0.00 | 75 | 1015.9 |
| 20260905162016 | 91 | 240 | 0.0 | 4.0 | 0.00 | 0.01 | 0.00 | 72 | 1016.0 |
| 20260905161016 | 91 | 265 | 1.0 | 5.0 | 0.00 | 0.01 | 0.00 | 73 | 1016.0 |
| 20260905160016 | 91 | 253 | 0.0 | 5.0 | 0.00 | 0.01 | 0.00 | 74 | 1016.1 |
| 20260905155016 | 91 | 259 | 0.0 | 4.0 | 0.00 | 0.01 | 0.00 | 73 | 1015.8 |
| 20260905154036 | 90 | 272 | 0.0 | 3.0 | 0.00 | 0.01 | 0.00 | 75 | 1015.8 |
| 20260905153036 | 90 | 272 | 0.0 | 4.0 | 0.00 | 0.01 | 0.00 | 74 | 1015.8 |